Dallesport, WA

12:51 PM PST on January 18, 2017 (GMT -0800)
Columbia Gorge Regional-The Dalles

Weather History for KDLS - February, 2013

Change the Weather History Date:

Thursday, February 7, 2013

  Actual Average Record
Temperature  
Mean Temperature 41 °F -  
Max Temperature 50 °F 43 °F 60 °F (1955)
Min Temperature 32 °F 28 °F 6 °F (1989)
Degree Days  
Heating Degree Days 24    
Moisture  
Dew Point 32 °F    
Average Humidity 70    
Maximum Humidity 89    
Minimum Humidity 48    
Precipitation  
Precipitation 0.01 in - - ()
Sea Level Pressure  
Sea Level Pressure 30.01 in    
Wind  
Wind Speed 7 mph (WNW)    
Max Wind Speed 13 mph    
Max Gust Speed -    
Visibility 10 miles    
Events Rain    
Averages and records for this station are not official NWS values.
T = Trace of Precipitation, MM = Missing Value Source: NWS Daily Summary

Daily Weather History Graph

Daily Weather History Graph

Search for Another Location

Airport or City:

Trip Planner

Search our weather history database for the weather conditions in past years. The results will help you decide how hot, cold, wet, or windy it might be!

Date:

Astronomy

Feb. 07, 2013 Rise Set
Actual Time 7:17 AM PST 5:20 PM PST
Civil Twilight 6:46 AM PST 5:51 PM PST
Nautical Twilight 6:11 AM PST 6:26 PM PST
Astronomical Twilight 5:37 AM PST 7:01 PM PST
Moon 5:06 AM PST (2/7) 2:46 PM PST (2/7)
Length of Visible Light 11h 04m
Length of Day
10h 02m
Waning Crescent, 8% of the Moon is Illuminated
Feb 7
Waning Crescent
Feb 9
New
Feb 17
First Quarter
Feb 25
Full
Mar 4
Last Quarter

Hourly Weather History & Observations

Time (PST) Temp. Windchill Dew Point Humidity Pressure Visibility Wind Dir Wind Speed Gust Speed Precip Events Conditions
12:53 AM 37.0 °F 33.3 °F 34.0 °F 89% 29.91 in 10.0 mi SE 4.6 mph - N/A   Mostly Cloudy
1:53 AM 39.9 °F 32.9 °F 37.0 °F 89% 29.95 in 8.0 mi WNW 11.5 mph - 0.00 in Rain Light Rain
2:53 AM 42.1 °F 36.1 °F 37.0 °F 82% 29.94 in 10.0 mi NW 10.4 mph - 0.01 in   Overcast
3:53 AM 41.0 °F 34.3 °F 35.1 °F 79% 29.95 in 10.0 mi WNW 11.5 mph - N/A   Overcast
4:53 AM 39.9 °F 33.9 °F 34.0 °F 79% 29.97 in 10.0 mi NW 9.2 mph - N/A   Partly Cloudy
5:53 AM 39.0 °F 35.7 °F 33.1 °F 79% 29.99 in 10.0 mi West 4.6 mph - N/A   Clear
6:53 AM 36.0 °F 31.1 °F 30.9 °F 82% 29.99 in 10.0 mi NW 5.8 mph - N/A   Clear
7:53 AM 35.1 °F 32.2 °F 30.9 °F 85% 30.01 in 10.0 mi SSE 3.5 mph - N/A   Clear
8:53 AM 39.0 °F 34.8 °F 34.0 °F 82% 30.03 in 10.0 mi SE 5.8 mph - N/A   Clear
9:53 AM 44.1 °F - 35.1 °F 71% 30.02 in 10.0 mi Calm Calm - N/A   Clear
10:53 AM 46.9 °F - 34.0 °F 61% 30.03 in 10.0 mi NW 10.4 mph - N/A   Clear
11:53 AM 48.9 °F - 30.0 °F 48% 30.01 in 10.0 mi WNW 12.7 mph - N/A   Partly Cloudy
12:53 PM 50.0 °F - 30.9 °F 48% 30.00 in 10.0 mi WNW 9.2 mph - N/A   Clear
1:53 PM 48.0 °F - 28.9 °F 48% 29.99 in 10.0 mi NW 12.7 mph - N/A   Clear
2:53 PM 48.0 °F - 30.9 °F 52% 30.00 in 10.0 mi WNW 9.2 mph - N/A   Clear
3:53 PM 48.0 °F - 30.9 °F 52% 30.00 in 10.0 mi West 6.9 mph - N/A   Clear
4:53 PM 46.0 °F 40.6 °F 28.9 °F 51% 30.01 in 10.0 mi West 11.5 mph - N/A   Clear
5:53 PM 43.0 °F 39.5 °F 28.9 °F 58% 30.03 in 10.0 mi West 5.8 mph - N/A   Clear
6:53 PM 41.0 °F - 28.9 °F 62% 30.04 in 10.0 mi Calm Calm - N/A   Clear
7:53 PM 39.9 °F 36.7 °F 30.0 °F 68% 30.06 in 10.0 mi North 4.6 mph - N/A   Clear
8:53 PM 39.0 °F 36.8 °F 30.0 °F 70% 30.08 in 10.0 mi Variable 3.5 mph - N/A   Clear
9:53 PM 37.0 °F 34.5 °F 30.0 °F 76% 30.09 in 10.0 mi WNW 3.5 mph - N/A   Clear
10:53 PM 32.0 °F - 27.0 °F 82% 30.11 in 10.0 mi Calm Calm - N/A   Clear
11:53 PM 35.1 °F 27.9 °F 30.0 °F 82% 30.12 in 10.0 mi NW 9.2 mph - N/A   Clear